BISONSAT

Last updated on Wed Oct 29 2025 00:03:53 GMT+0000 (Coordinated Universal Time)

1 40974U 15058L 25301.44907367 .00013480 00000+0 76258-3 0 9990 2 40974 64.7612 199.3445 0095423 148.3363 212.3549 15.09471927 80557
UTC large
Height (km)
Speed (km/s)
/
Latitude / Longitude
Inclination (degrees)
Orbital Period (minutes)
Azimuth
Elevation
Range (km)
Doppler Factor

Next 0 passes for location: London (51.5072 / 0.1276)

Sorry there are no passes over London.